Regional Weather Roundup
Issued by NWS

Home | Current Version | Previous Version | Text Only | Print | Product List | Glossary On
Versions: 1 2 3 4 5 6 7 8 9 10 11 12 13 14 15 16 17 18 19 20 21 22 23 24 25 26 27 28 29 30 31 32 33 34 35 36 37 38 39 40 41 42 43 44 45 46 47 48 49 50
000
ASUS44 KFWD 261601
RWRTX
NORTH TEXAS HOURLY WEATHER ROUNDUP
NATIONAL WEATHER SERVICE FORT WORTH TX
1100 AM CDT SAT MAY 26 2018

NOTE: "FAIR" INDICATES FEW OR NO CLOUDS BELOW 12,000 FEET WITH NO
SIGNIFICANT WEATHER AND/OR OBSTRUCTIONS TO VISIBILITY.

TXZ118-119-261700-
DALLAS/FORT WORTH METROPLEX

CITY           SKY/WX    TMP DP  RH WIND       PRES   REMARKS
DFW AIRPORT    FAIR      86  67  52 S3        29.84F
DALLAS LOVE    FAIR      84  67  56 CALM      29.85S
FTW MEACHAM    FAIR      91  63  39 W9        29.85F HX  92
DAL-EXECUTIVE  FAIR      88  67  49 CALM      29.85F HX  91
FTW-ALLIANCE   FAIR      90  60  36 SW7       29.85F
FTW-NAS-JRB    FAIR      88  62  41 VRB5      29.86F
FTW-SPINKS     SUNNY     90  61  37 W6        29.88F
ARLINGTON      FAIR      88  65  46 VRB5      29.86S HX  90
GRAND PRAIRIE  SUNNY     88  57  35 CALM      29.87S
ADDISON        MOSUNNY   84  66  54 SE3       29.87S
MESQUITE       PTSUNNY   81  70  69 SE5       29.86F
LANCASTER      FAIR      81  69  67 CALM      29.87S
$$

TXZ091>094-102>105-117-120-121-131>134-261700-
NORTH CENTRAL TEXAS

CITY           SKY/WX    TMP DP  RH WIND       PRES   REMARKS
SHRMAN/DENISON FAIR      83  69  62 S3        29.88S
GAINESVILLE    FAIR      83  68  61 CALM      29.89S
BOWIE          FAIR      87  62  44 CALM      29.87F
BRIDGEPORT     FAIR      88  56  34 CALM      29.88F
DECATUR        FAIR      85  66  52 CALM      29.87F
DENTON         FAIR      85  67  54 NW3       29.85F
MCKINNEY       PTSUNNY   79  70  74 CALM      29.87S
BONHAM         FAIR      82  69  66 CALM      29.87F
ROCKWALL       PTSUNNY   82  70  68 S7        29.87F
TERRELL        FAIR      83  69  62 VRB5      29.87S
WAXAHACHIE     FAIR      86  67  53 CALM      29.87F
CLEBURNE       FAIR      84  68  58 CALM      29.89F
GRANBURY       FAIR      88  62  41 SE3       29.88S
$$

TXZ083>090-098>101-113>116-127>130-139>142-154-155-261700-
WESTERN NORTH TEXAS

CITY           SKY/WX    TMP DP  RH WIND       PRES   REMARKS
WICHITA FALLS  FAIR      84  62  47 S6        29.86F
WF-KICKAPOO    FAIR      84  58  41 CALM      29.89F
VERNON         FAIR      85  59  41 S8        29.88F
ABILENE        FAIR      87  66  49 SW13      29.88F
ABILENE-DYESS  FAIR      88  61  39 S9        29.87F
BRECKENRIDGE   FAIR      86  62  44 S6        29.87F
EASTLAND       FAIR      83  66  55 S5        29.89S
RANGER         FAIR      82  64  55 S5        29.90S
MINERAL WELLS  FAIR      85  65  51 S6        29.86F
STEPHENVILLE   FAIR      83  63  49 S3        29.91F
COMANCHE       FAIR      85  69  57 SW6       29.89F
BROWNWOOD      FAIR      84  68  58 S3        29.89S
COLEMAN        FAIR      90  62  39 SW10G20   29.89S HX  90
BRADY          FAIR      88  66  48 SW10G16   29.89F HX  90
$$

TXZ143>147-156>162-174-175-261700-
CENTRAL TEXAS

CITY           SKY/WX    TMP DP  RH WIND       PRES   REMARKS
WACO           FAIR      89  64  43 VRB6      29.86S HX  90
WACO-TSTC      SUNNY     86  63  45 N5        29.87R
WACO-MCGREGOR  FAIR      91  69  48 SW7       29.86F HX  96
HILLSBORO      FAIR      85  67  54 W5        29.87S
CORSICANA      FAIR      85  71  63 S5        29.88  HX  90
MEXIA          FAIR      85  72  65 SW6       29.87R HX  91
HEARNE         FAIR      86  69  55 SW7       29.88S HX  90
CAMERON        FAIR      88  69  53 SW10      29.86F HX  93
TEMPLE         FAIR      89  72  56 SW8       29.87F HX  96
KILLEEN        NOT AVBL
KILLEEN-SKYLRK FAIR      87  71  58 SW7       29.88F HX  93
FORT HOOD      FAIR      86  70  57 S8        29.84F HX  91
GATESVILLE     FAIR      86  66  51 SW7       29.89S
HAMILTON       FAIR      85  68  56 SW5       29.90S
LAMPASAS       FAIR      85  69  57 S3        29.88S
$$

TXZ095>097-106>112-122>126-135>138-148>153-164>167-261700-
EAST TEXAS

CITY           SKY/WX    TMP DP  RH WIND       PRES   REMARKS
PARIS          FAIR      84  71  65 CALM      29.88S
SULPHUR SPRNGS FAIR      84  69  60 CALM      29.89S
MOUNT PLEASANT FAIR      83  70  65 S3        29.89R
GILMER         CLOUDY    79  73  82 CALM      29.88S
MINEOLA        FAIR      84  72  65 W3        29.87F
TYLER          FAIR      84  72  67 VRB6      29.88S
LONGVIEW       FAIR      87  75  67 VRB3      29.87S HX  96
MARSHALL       FAIR      79  71  78 CALM      29.90S
ATHENS         FAIR      82  70  65 CALM      29.87S
PALESTINE      FAIR      83  71  66 S7        29.90S
JACKSONVILLE   FAIR      85  72  65 S8        29.92S HX  90
HENDERSON      PTSUNNY   87  73  64 S6        29.89S HX  94
CENTER         FAIR      83  71  66 SW3       29.89F
NACOGDOCHES      N/A     83  75  77 SW6       29.90S HX  90
LUFKIN         PTSUNNY   84  75  74 W5        29.89S HX  92
$$

SUPPLEMENTAL OBSERVATIONS (NWS FORT WORTH AREA)

CITY           SKY/WX    TMP DP  RH WIND       PRES   REMARKS
$$

SUPPLEMENTAL OBSERVATIONS (NWS NORMAN AREA)

CITY           SKY/WX    TMP DP  RH WIND       PRES   REMARKS
GOODLETT         N/A     83  62  49 SE8       29.88S
ODELL            N/A     84  61  45 S7        29.88F
CROWELL          N/A     82  62  50 S7        29.89F
KNOX CITY        N/A     82  61  49 SE5       29.89S
SEYMOUR          N/A     83  63  50 SE6       29.88F
$$

SUPPLEMENTAL OBSERVATIONS (NWS SAN ANGELO AREA)

CITY           SKY/WX    TMP DP  RH WIND       PRES   REMARKS
WEINERT          N/A     83  64  52 S3        29.89S
HASKELL          N/A     82  60  48 SE5       29.89R
THROCKMORTON     N/A     85  66  52 S5        29.89F
STAMFORD         N/A     83  67  57 SE6       29.88F
CLYDE            N/A     86  67  51 SW9       29.91S
$$

SUPPLEMENTAL OBSERVATIONS (NWS SHREVEPORT AREA)

CITY           SKY/WX    TMP DP  RH WIND       PRES   REMARKS
$$

SUPPLEMENTAL OBSERVATIONS ARE A COLLECTION OF AUTOMATED INSTRUMENTS
THAT ARE MAINTAINED BY A VARIETY OF FEDERAL AND STATE AGENCIES.
CERTAIN ELEMENTS...SUCH AS HUMIDITY VALUES AND SUSTAINED WIND
SPEEDS...MAY BE APPROXIMATED.





USA.gov is the U.S. government's official web portal to all federal, state and local government web resources and services.